START_TIME,STEP,MOV.,EG07,t_acc.,EG08,t_acc.,EG09,t_acc.,EB05,t_acc.,EBP05,t_acc.
1979-07-23 03:00:22.420 ,1,0,0.,1.2,0.,1.2,0.,1.2,,0.0,,0.0
1979-07-23 03:00:23.620 ,1,0,0.,1.2,0.,1.2,0.,1.2,,0.0,,0.0
1979-07-23 03:00:24.820 ,1,0,1.,1.2,0.,1.2,0.,1.2,,0.0,,0.0
1979-07-23 03:00:26.020 ,1,0,1.,1.2,1.,1.2,1.,1.2,,0.0,,0.0
1979-07-23 03:00:27.220 ,1,0,1.,1.2,1.,1.2,1.,1.2,,0.0,,0.0
1979-07-23 03:00:28.420 ,1,0,1.,1.2,0.,1.2,0.,1.2,,0.0,,0.0
1979-07-23 03:00:29.620 ,1,0,0.,1.2,0.,1.2,0.,1.2,,0.0,,0.0
1979-07-23 03:00:30.820 ,1,0,0.,1.2,0.,1.2,0.,1.2,,0.0,,0.0
1979-07-23 03:00:32.020 ,1,0,0.,1.2,0.,1.2,0.,1.2,,0.0,,0.0
1979-07-23 03:00:33.220 ,1,0,1.,1.2,0.,1.2,0.,1.2,,0.0,,0.0
1979-07-23 03:00:34.420 ,1,0,0.,1.2,0.,1.2,0.,1.2,,0.0,,0.0
1979-07-23 03:00:35.620 ,1,0,0.,1.2,0.,1.2,0.,1.2,,0.0,,0.0
1979-07-23 03:00:36.820 ,1,0,0.,1.2,0.,1.2,0.,1.2,,0.0,,0.0
1979-07-23 03:00:38.020 ,1,0,0.,1.2,0.,1.2,0.,1.2,,0.0,,0.0
1979-07-23 03:00:39.220 ,1,0,0.,1.2,0.,1.2,0.,1.2,,0.0,,0.0
1979-07-23 03:00:40.420 ,1,0,0.,1.2,0.,1.2,0.,1.2,,0.0,,0.0
1979-07-23 03:00:41.620 ,1,0,1.,1.2,0.,1.2,0.,1.2,,0.0,,0.0
1979-07-23 03:00:42.820 ,1,0,0.,1.2,0.,1.2,0.,1.2,,0.0,,0.0
1979-07-23 03:00:44.020 ,1,0,0.,1.2,0.,1.2,0.,1.2,,0.0,,0.0
1979-07-23 03:00:45.220 ,1,0,0.,1.2,0.,1.2,0.,1.2,,0.0,,0.0
1979-07-23 03:00:46.420 ,2,0,0.,1.2,0.,1.2,0.,1.2,,0.0,,0.0
1979-07-23 03:00:47.620 ,2,0,0.,1.2,0.,1.2,0.,1.2,,0.0,,0.0
1979-07-23 03:00:48.820 ,2,0,1.,1.2,1.,1.2,0.,1.2,,0.0,,0.0
1979-07-23 03:00:50.020 ,2,0,0.,1.2,0.,1.2,0.,1.2,,0.0,,0.0
1979-07-23 03:00:51.220 ,2,0,0.,1.2,0.,1.2,0.,1.2,,0.0,,0.0
1979-07-23 03:00:52.420 ,2,0,0.,1.2,0.,1.2,0.,1.2,,0.0,,0.0
1979-07-23 03:00:53.620 ,2,0,0.,1.2,0.,1.2,0.,1.2,,0.0,,0.0
1979-07-23 03:00:54.820 ,2,0,1.,1.2,1.,1.2,0.,1.2,,0.0,,0.0
1979-07-23 03:00:56.020 ,2,0,2.,1.2,1.,1.2,1.,1.2,,0.0,,0.0
1979-07-23 03:00:57.220 ,2,0,1.,1.2,0.,1.2,0.,1.2,,0.0,,0.0
1979-07-23 03:00:58.420 ,2,0,0.,1.2,0.,1.2,0.,1.2,,0.0,,0.0
1979-07-23 03:00:59.620 ,2,0,0.,1.2,0.,1.2,0.,1.2,,0.0,,0.0
1979-07-23 03:01:00.820 ,2,0,1.,1.2,0.,1.2,0.,1.2,,0.0,,0.0
1979-07-23 03:01:02.020 ,2,0,0.,1.2,0.,1.2,0.,1.2,,0.0,,0.0
1979-07-23 03:01:03.220 ,2,0,0.,1.2,0.,1.2,0.,1.2,,0.0,,0.0
1979-07-23 03:01:04.420 ,2,0,1.,1.2,0.,1.2,0.,1.2,,0.0,,0.0
1979-07-23 03:01:05.620 ,2,0,0.,1.2,0.,1.2,0.,1.2,,0.0,,0.0
1979-07-23 03:01:06.820 ,2,0,2.,1.2,1.,1.2,0.,1.2,,0.0,,0.0
1979-07-23 03:01:08.020 ,2,0,2.,1.2,1.,1.2,0.,1.2,,0.0,,0.0
1979-07-23 03:01:09.220 ,2,0,0.,1.2,0.,1.2,0.,1.2,,0.0,,0.0
1979-07-23 03:01:10.420 ,2,0,0.,1.2,0.,1.2,0.,1.2,,0.0,,0.0
1979-07-23 03:01:11.620 ,2,0,1.,1.2,0.,1.2,0.,1.2,,0.0,,0.0
1979-07-23 03:01:12.820 ,2,0,0.,1.2,0.,1.2,0.,1.2,,0.0,,0.0
1979-07-23 03:01:14.020 ,2,0,0.,1.2,0.,1.2,0.,1.2,,0.0,,0.0
1979-07-23 03:01:15.220 ,2,0,0.,1.2,0.,1.2,0.,1.2,,0.0,,0.0
1979-07-23 03:01:16.420 ,2,0,0.,1.2,0.,1.2,0.,1.2,,0.0,,0.0
1979-07-23 03:01:17.620 ,2,0,0.,1.2,0.,1.2,0.,1.2,,0.0,,0.0
1979-07-23 03:01:18.820 ,2,0,0.,1.2,0.,1.2,0.,1.2,,0.0,,0.0
1979-07-23 03:01:20.020 ,2,0,0.,1.2,0.,1.2,0.,1.2,,0.0,,0.0
1979-07-23 03:01:21.220 ,2,0,0.,1.2,0.,1.2,0.,1.2,,0.0,,0.0
1979-07-23 03:01:22.420 ,2,0,0.,1.2,0.,1.2,0.,1.2,,0.0,,0.0
1979-07-23 03:01:23.620 ,2,0,0.,1.2,0.,1.2,0.,1.2,,0.0,,0.0
1979-07-23 03:01:24.820 ,2,0,0.,1.2,0.,1.2,0.,1.2,,0.0,,0.0
1979-07-23 03:01:26.020 ,2,0,0.,1.2,0.,1.2,0.,1.2,,0.0,,0.0
1979-07-23 03:01:27.220 ,2,0,2.,1.2,1.,1.2,1.,1.2,,0.0,,0.0
1979-07-23 03:01:28.420 ,2,0,0.,1.2,0.,1.2,0.,1.2,,0.0,,0.0
1979-07-23 03:01:29.620 ,2,0,1.,1.2,0.,1.2,0.,1.2,,0.0,,0.0
1979-07-23 03:01:30.820 ,2,0,2.,1.2,2.,1.2,0.,1.2,,0.0,,0.0
1979-07-23 03:01:32.020 ,2,0,0.,1.2,0.,1.2,0.,1.2,,0.0,,0.0
1979-07-23 03:01:33.220 ,2,0,2.,1.2,0.,1.2,0.,1.2,,0.0,,0.0
1979-07-23 03:01:34.420 ,3,0,0.,1.2,0.,1.2,0.,1.2,,0.0,,0.0
1979-07-23 03:01:35.620 ,3,0,2.,1.2,1.,1.2,0.,1.2,,0.0,,0.0
1979-07-23 03:01:36.820 ,3,0,0.,1.2,0.,1.2,0.,1.2,,0.0,,0.0
1979-07-23 03:01:38.020 ,3,0,0.,1.2,0.,1.2,0.,1.2,,0.0,,0.0
1979-07-23 03:01:39.220 ,3,0,0.,1.2,0.,1.2,0.,1.2,,0.0,,0.0
1979-07-23 03:01:40.420 ,3,0,0.,1.2,0.,1.2,0.,1.2,,0.0,,0.0
1979-07-23 03:01:41.620 ,3,0,2.,1.2,0.,1.2,0.,1.2,,0.0,,0.0
1979-07-23 03:01:42.820 ,3,0,0.,1.2,0.,1.2,0.,1.2,,0.0,,0.0
1979-07-23 03:01:44.020 ,3,0,1.,1.2,0.,1.2,0.,1.2,,0.0,,0.0
1979-07-23 03:01:45.220 ,3,0,0.,1.2,0.,1.2,0.,1.2,,0.0,,0.0
1979-07-23 03:01:46.420 ,3,0,0.,1.2,0.,1.2,0.,1.2,,0.0,,0.0
1979-07-23 03:01:47.620 ,3,0,0.,1.2,0.,1.2,0.,1.2,,0.0,,0.0
1979-07-23 03:01:48.820 ,3,0,0.,1.2,0.,1.2,0.,1.2,,0.0,,0.0
1979-07-23 03:01:50.020 ,3,0,0.,1.2,0.,1.2,0.,1.2,,0.0,,0.0
1979-07-23 03:01:51.220 ,3,0,0.,1.2,0.,1.2,0.,1.2,,0.0,,0.0
1979-07-23 03:01:52.420 ,3,0,0.,1.2,0.,1.2,0.,1.2,,0.0,,0.0
1979-07-23 03:01:53.620 ,3,0,1.,1.2,0.,1.2,0.,1.2,,0.0,,0.0
1979-07-23 03:01:54.820 ,3,0,1.,1.2,0.,1.2,0.,1.2,,0.0,,0.0
1979-07-23 03:01:56.020 ,3,0,1.,1.2,0.,1.2,0.,1.2,,0.0,,0.0
1979-07-23 03:01:57.220 ,3,0,0.,1.2,0.,1.2,0.,1.2,,0.0,,0.0
1979-07-23 03:01:58.420 ,3,0,0.,1.2,0.,1.2,0.,1.2,,0.0,,0.0
1979-07-23 03:01:59.620 ,3,0,0.,1.2,0.,1.2,0.,1.2,,0.0,,0.0
1979-07-23 03:02:00.820 ,3,0,1.,1.2,0.,1.2,0.,1.2,,0.0,,0.0
1979-07-23 03:02:02.020 ,3,0,0.,1.2,0.,1.2,0.,1.2,,0.0,,0.0
1979-07-23 03:02:03.220 ,3,0,0.,1.2,0.,1.2,0.,1.2,,0.0,,0.0
1979-07-23 03:02:04.420 ,3,0,2.,1.2,2.,1.2,0.,1.2,,0.0,,0.0
1979-07-23 03:02:05.620 ,3,0,0.,1.2,0.,1.2,0.,1.2,,0.0,,0.0
1979-07-23 03:02:06.820 ,3,0,1.,1.2,1.,1.2,0.,1.2,,0.0,,0.0
1979-07-23 03:02:08.020 ,3,0,0.,1.2,0.,1.2,0.,1.2,,0.0,,0.0
1979-07-23 03:02:09.220 ,3,0,0.,1.2,0.,1.2,0.,1.2,,0.0,,0.0
1979-07-23 03:02:10.420 ,3,0,0.,1.2,0.,1.2,0.,1.2,,0.0,,0.0
1979-07-23 03:02:11.620 ,3,0,0.,1.2,0.,1.2,0.,1.2,,0.0,,0.0
1979-07-23 03:02:12.820 ,3,0,0.,1.2,0.,1.2,0.,1.2,,0.0,,0.0
1979-07-23 03:02:14.020 ,3,0,0.,1.2,0.,1.2,0.,1.2,,0.0,,0.0
1979-07-23 03:02:15.220 ,3,0,1.,1.2,0.,1.2,0.,1.2,,0.0,,0.0
1979-07-23 03:02:16.420 ,3,0,3.,1.2,0.,1.2,0.,1.2,,0.0,,0.0
1979-07-23 03:02:17.620 ,3,0,1.,1.2,1.,1.2,0.,1.2,,0.0,,0.0
1979-07-23 03:02:18.820 ,3,0,1.,1.2,0.,1.2,0.,1.2,,0.0,,0.0
1979-07-23 03:02:20.020 ,3,0,0.,1.2,0.,1.2,0.,1.2,,0.0,,0.0
1979-07-23 03:02:21.220 ,3,0,0.,1.2,0.,1.2,0.,1.2,,0.0,,0.0
1979-07-23 03:03:10.420 ,0,0,0.,1.2,0.,1.2,0.,1.2,,0.0,,0.0
1979-07-23 03:03:11.620 ,0,0,0.,1.2,0.,1.2,0.,1.2,,0.0,,0.0
1979-07-23 03:03:12.820 ,0,0,0.,1.2,0.,1.2,0.,1.2,,0.0,,0.0
1979-07-23 03:03:14.020 ,0,0,2.,1.2,1.,1.2,0.,1.2,,0.0,,0.0
1979-07-23 03:03:15.220 ,0,0,2.,1.2,1.,1.2,0.,1.2,,0.0,,0.0
1979-07-23 03:03:16.420 ,0,0,2.,1.2,0.,1.2,0.,1.2,,0.0,,0.0
1979-07-23 03:03:17.620 ,0,0,0.,1.2,0.,1.2,0.,1.2,,0.0,,0.0
1979-07-23 03:03:18.820 ,0,0,1.,1.2,0.,1.2,0.,1.2,,0.0,,0.0
1979-07-23 03:03:20.020 ,0,0,0.,1.2,0.,1.2,0.,1.2,,0.0,,0.0
1979-07-23 03:03:21.220 ,0,0,0.,1.2,0.,1.2,0.,1.2,,0.0,,0.0
1979-07-23 03:03:22.420 ,0,0,0.,1.2,0.,1.2,0.,1.2,,0.0,,0.0
1979-07-23 03:03:23.620 ,0,0,3.,1.2,1.,1.2,0.,1.2,,0.0,,0.0
1979-07-23 03:03:24.820 ,0,0,1.,1.2,0.,1.2,0.,1.2,,0.0,,0.0
1979-07-23 03:03:26.020 ,0,0,0.,1.2,0.,1.2,0.,1.2,,0.0,,0.0
1979-07-23 03:03:27.220 ,0,0,0.,1.2,0.,1.2,0.,1.2,,0.0,,0.0
1979-07-23 03:03:28.420 ,0,0,0.,1.2,0.,1.2,0.,1.2,,0.0,,0.0
1979-07-23 03:03:29.620 ,0,0,0.,1.2,0.,1.2,0.,1.2,,0.0,,0.0
1979-07-23 03:03:30.820 ,0,0,0.,1.2,0.,1.2,0.,1.2,,0.0,,0.0
1979-07-23 03:03:32.020 ,0,0,0.,1.2,0.,1.2,0.,1.2,,0.0,,0.0
1979-07-23 03:03:33.220 ,0,0,0.,1.2,0.,1.2,0.,1.2,,0.0,,0.0
1979-07-23 03:03:34.420 ,0,0,1.,1.2,1.,1.2,1.,1.2,,0.0,,0.0
1979-07-23 03:03:35.620 ,0,0,0.,1.2,0.,1.2,0.,1.2,,0.0,,0.0
1979-07-23 03:03:36.820 ,0,0,0.,1.2,0.,1.2,0.,1.2,,0.0,,0.0
1979-07-23 03:03:38.020 ,0,0,0.,1.2,0.,1.2,0.,1.2,,0.0,,0.0
1979-07-23 03:03:39.220 ,0,0,0.,1.2,0.,1.2,0.,1.2,,0.0,,0.0
1979-07-23 03:03:40.420 ,0,0,0.,1.2,0.,1.2,0.,1.2,,0.0,,0.0
1979-07-23 03:03:41.620 ,0,0,0.,1.2,0.,1.2,0.,1.2,,0.0,,0.0
1979-07-23 03:03:42.820 ,0,0,0.,1.2,0.,1.2,0.,1.2,,0.0,,0.0
1979-07-23 03:03:44.020 ,0,0,0.,1.2,0.,1.2,0.,1.2,,0.0,,0.0
1979-07-23 03:03:45.220 ,0,0,0.,1.2,0.,1.2,0.,1.2,,0.0,,0.0
1979-07-23 03:03:46.420 ,0,0,1.,1.2,0.,1.2,0.,1.2,,0.0,,0.0
1979-07-23 03:03:47.620 ,0,0,1.,1.2,0.,1.2,0.,1.2,,0.0,,0.0
1979-07-23 03:03:48.820 ,0,0,0.,1.2,0.,1.2,0.,1.2,,0.0,,0.0
1979-07-23 03:03:50.020 ,0,0,1.,1.2,1.,1.2,1.,1.2,,0.0,,0.0
1979-07-23 03:03:51.220 ,0,0,1.,1.2,0.,1.2,0.,1.2,,0.0,,0.0
1979-07-23 03:03:52.420 ,0,0,0.,1.2,0.,1.2,0.,1.2,,0.0,,0.0
1979-07-23 03:03:53.620 ,0,0,0.,1.2,0.,1.2,0.,1.2,,0.0,,0.0
1979-07-23 03:03:54.820 ,0,0,0.,1.2,0.,1.2,0.,1.2,,0.0,,0.0
1979-07-23 03:03:56.020 ,0,0,0.,1.2,0.,1.2,0.,1.2,,0.0,,0.0
1979-07-23 03:03:57.220 ,0,0,0.,1.2,0.,1.2,0.,1.2,,0.0,,0.0
1979-07-23 03:03:58.420 ,6,0,0.,1.2,0.,1.2,0.,1.2,,0.0,,0.0
1979-07-23 03:03:59.620 ,6,0,2.,1.2,0.,1.2,0.,1.2,,0.0,,0.0
1979-07-23 03:04:00.820 ,6,0,1.,1.2,0.,1.2,0.,1.2,,0.0,,0.0
1979-07-23 03:04:02.020 ,6,0,0.,1.2,0.,1.2,0.,1.2,,0.0,,0.0
1979-07-23 03:04:03.220 ,6,0,0.,1.2,0.,1.2,0.,1.2,,0.0,,0.0
1979-07-23 03:04:04.420 ,6,0,1.,1.2,1.,1.2,0.,1.2,,0.0,,0.0
1979-07-23 03:04:05.620 ,6,0,0.,1.2,0.,1.2,0.,1.2,,0.0,,0.0
1979-07-23 03:04:06.820 ,6,0,0.,1.2,0.,1.2,0.,1.2,,0.0,,0.0
1979-07-23 03:04:08.020 ,6,0,0.,1.2,0.,1.2,0.,1.2,,0.0,,0.0
1979-07-23 03:04:09.220 ,6,0,0.,1.2,0.,1.2,0.,1.2,,0.0,,0.0
1979-07-23 03:04:10.420 ,6,0,0.,1.2,0.,1.2,0.,1.2,,0.0,,0.0
1979-07-23 03:04:11.620 ,6,0,0.,1.2,0.,1.2,0.,1.2,,0.0,,0.0
1979-07-23 03:04:12.820 ,6,0,0.,1.2,0.,1.2,0.,1.2,,0.0,,0.0
1979-07-23 03:04:14.020 ,6,0,1.,1.2,0.,1.2,0.,1.2,,0.0,,0.0
1979-07-23 03:04:15.220 ,6,0,1.,1.2,0.,1.2,0.,1.2,,0.0,,0.0
1979-07-23 03:04:16.420 ,6,0,0.,1.2,0.,1.2,0.,1.2,,0.0,,0.0
1979-07-23 03:04:17.620 ,6,0,0.,1.2,0.,1.2,0.,1.2,,0.0,,0.0
1979-07-23 03:04:18.820 ,6,0,0.,1.2,0.,1.2,0.,1.2,,0.0,,0.0
1979-07-23 03:04:20.020 ,6,0,0.,1.2,0.,1.2,0.,1.2,,0.0,,0.0
1979-07-23 03:04:21.220 ,6,0,0.,1.2,0.,1.2,0.,1.2,,0.0,,0.0
1979-07-23 03:04:22.420 ,6,0,1.,1.2,0.,1.2,0.,1.2,,0.0,,0.0
1979-07-23 03:04:23.620 ,6,0,0.,1.2,0.,1.2,0.,1.2,,0.0,,0.0
1979-07-23 03:04:24.820 ,6,0,0.,1.2,0.,1.2,0.,1.2,,0.0,,0.0
1979-07-23 03:04:26.020 ,6,0,0.,1.2,0.,1.2,0.,1.2,,0.0,,0.0
1979-07-23 03:04:27.220 ,6,0,1.,1.2,1.,1.2,0.,1.2,,0.0,,0.0
1979-07-23 03:04:28.420 ,6,0,0.,1.2,0.,1.2,0.,1.2,,0.0,,0.0
1979-07-23 03:04:29.620 ,6,0,0.,1.2,0.,1.2,0.,1.2,,0.0,,0.0
1979-07-23 03:04:30.820 ,6,0,0.,1.2,0.,1.2,0.,1.2,,0.0,,0.0
1979-07-23 03:04:32.020 ,6,0,0.,1.2,0.,1.2,0.,1.2,,0.0,,0.0
1979-07-23 03:04:33.220 ,6,0,1.,1.2,1.,1.2,0.,1.2,,0.0,,0.0
1979-07-23 03:04:34.420 ,6,0,0.,1.2,0.,1.2,0.,1.2,,0.0,,0.0
1979-07-23 03:04:35.620 ,6,0,0.,1.2,0.,1.2,0.,1.2,,0.0,,0.0
1979-07-23 03:04:36.820 ,6,0,0.,1.2,0.,1.2,0.,1.2,,0.0,,0.0
1979-07-23 03:04:38.020 ,6,0,0.,1.2,0.,1.2,0.,1.2,,0.0,,0.0
1979-07-23 03:04:39.220 ,6,0,0.,1.2,0.,1.2,0.,1.2,,0.0,,0.0
1979-07-23 03:04:40.420 ,6,0,0.,1.2,0.,1.2,0.,1.2,,0.0,,0.0
1979-07-23 03:04:41.620 ,6,0,0.,1.2,0.,1.2,0.,1.2,,0.0,,0.0
1979-07-23 03:04:42.820 ,6,0,2.,1.2,1.,1.2,0.,1.2,,0.0,,0.0
1979-07-23 03:04:44.020 ,6,0,0.,1.2,0.,1.2,0.,1.2,,0.0,,0.0
1979-07-23 03:04:45.220 ,6,0,0.,1.2,0.,1.2,0.,1.2,,0.0,,0.0
1979-07-23 03:04:46.420 ,7,0,0.,1.2,0.,1.2,0.,1.2,,0.0,,0.0
1979-07-23 03:04:47.620 ,7,0,0.,1.2,0.,1.2,0.,1.2,,0.0,,0.0
1979-07-23 03:04:48.820 ,7,0,1.,1.2,0.,1.2,0.,1.2,,0.0,,0.0
1979-07-23 03:04:50.020 ,7,0,0.,1.2,0.,1.2,0.,1.2,,0.0,,0.0
1979-07-23 03:04:51.220 ,7,0,0.,1.2,0.,1.2,0.,1.2,,0.0,,0.0
1979-07-23 03:04:52.420 ,7,0,0.,1.2,0.,1.2,0.,1.2,,0.0,,0.0
1979-07-23 03:04:53.620 ,7,0,0.,1.2,0.,1.2,0.,1.2,,0.0,,0.0
1979-07-23 03:04:54.820 ,7,0,1.,1.2,0.,1.2,0.,1.2,,0.0,,0.0
1979-07-23 03:04:56.020 ,7,0,0.,1.2,0.,1.2,0.,1.2,,0.0,,0.0
1979-07-23 03:04:57.220 ,7,0,0.,1.2,0.,1.2,0.,1.2,,0.0,,0.0
1979-07-23 03:04:58.420 ,7,0,1.,1.2,0.,1.2,0.,1.2,,0.0,,0.0
1979-07-23 03:04:59.620 ,7,0,0.,1.2,0.,1.2,0.,1.2,,0.0,,0.0
1979-07-23 03:05:00.820 ,7,0,1.,1.2,0.,1.2,0.,1.2,,0.0,,0.0
1979-07-23 03:05:02.020 ,7,0,0.,1.2,0.,1.2,0.,1.2,,0.0,,0.0
1979-07-23 03:05:03.220 ,7,0,0.,1.2,0.,1.2,0.,1.2,,0.0,,0.0
1979-07-23 03:05:04.420 ,7,0,0.,1.2,0.,1.2,0.,1.2,,0.0,,0.0
1979-07-23 03:05:05.620 ,7,0,0.,1.2,0.,1.2,0.,1.2,,0.0,,0.0
1979-07-23 03:05:06.820 ,7,0,0.,1.2,0.,1.2,0.,1.2,,0.0,,0.0
1979-07-23 03:05:08.020 ,7,0,1.,1.2,1.,1.2,1.,1.2,,0.0,,0.0
1979-07-23 03:05:09.220 ,7,0,0.,1.2,0.,1.2,0.,1.2,,0.0,,0.0
1979-07-23 03:05:10.420 ,7,0,0.,1.2,0.,1.2,0.,1.2,,0.0,,0.0
1979-07-23 03:05:11.620 ,7,0,0.,1.2,0.,1.2,0.,1.2,,0.0,,0.0
1979-07-23 03:05:12.820 ,7,0,0.,1.2,0.,1.2,0.,1.2,,0.0,,0.0
1979-07-23 03:05:14.020 ,7,0,0.,1.2,0.,1.2,0.,1.2,,0.0,,0.0
1979-07-23 03:05:15.220 ,7,0,2.,1.2,1.,1.2,0.,1.2,,0.0,,0.0
1979-07-23 03:05:16.420 ,7,0,1.,1.2,1.,1.2,0.,1.2,,0.0,,0.0
1979-07-23 03:05:17.620 ,7,0,1.,1.2,0.,1.2,0.,1.2,,0.0,,0.0
1979-07-23 03:05:18.820 ,7,0,0.,1.2,0.,1.2,0.,1.2,,0.0,,0.0
1979-07-23 03:05:20.020 ,7,0,0.,1.2,0.,1.2,0.,1.2,,0.0,,0.0
1979-07-23 03:05:21.220 ,7,0,0.,1.2,0.,1.2,0.,1.2,,0.0,,0.0
1979-07-23 03:05:22.420 ,7,0,0.,1.2,0.,1.2,0.,1.2,,0.0,,0.0
1979-07-23 03:05:23.620 ,7,0,0.,1.2,0.,1.2,0.,1.2,,0.0,,0.0
1979-07-23 03:05:24.820 ,7,0,0.,1.2,0.,1.2,0.,1.2,,0.0,,0.0
1979-07-23 03:05:26.020 ,7,0,0.,1.2,0.,1.2,0.,1.2,,0.0,,0.0
1979-07-23 03:05:27.220 ,7,0,0.,1.2,0.,1.2,0.,1.2,,0.0,,0.0
1979-07-23 03:05:28.420 ,7,0,0.,1.2,0.,1.2,0.,1.2,,0.0,,0.0
1979-07-23 03:05:29.620 ,7,0,1.,1.2,1.,1.2,0.,1.2,,0.0,,0.0
1979-07-23 03:05:30.820 ,7,0,0.,1.2,0.,1.2,0.,1.2,,0.0,,0.0
1979-07-23 03:05:32.020 ,7,0,0.,1.2,0.,1.2,0.,1.2,,0.0,,0.0
1979-07-23 03:05:33.220 ,7,0,0.,1.2,0.,1.2,0.,1.2,,0.0,,0.0
1979-07-23 03:05:34.420 ,7,0,0.,1.2,0.,1.2,0.,1.2,,0.0,,0.0
1979-07-23 03:05:35.620 ,7,0,0.,1.2,0.,1.2,0.,1.2,,0.0,,0.0
1979-07-23 03:05:36.820 ,7,0,0.,1.2,0.,1.2,0.,1.2,,0.0,,0.0
1979-07-23 03:05:38.020 ,7,0,0.,1.2,0.,1.2,0.,1.2,,0.0,,0.0
1979-07-23 03:05:39.220 ,7,0,0.,1.2,0.,1.2,0.,1.2,,0.0,,0.0
1979-07-23 03:05:40.420 ,7,0,0.,1.2,0.,1.2,0.,1.2,,0.0,,0.0
1979-07-23 03:05:41.620 ,7,0,0.,1.2,0.,1.2,0.,1.2,,0.0,,0.0
1979-07-23 03:05:42.820 ,7,0,1.,1.2,1.,1.2,1.,1.2,,0.0,,0.0
1979-07-23 03:05:44.020 ,7,0,0.,1.2,0.,1.2,0.,1.2,,0.0,,0.0
1979-07-23 03:05:45.220 ,7,0,0.,1.2,0.,1.2,0.,1.2,,0.0,,0.0
1979-07-23 03:05:46.420 ,7,0,1.,1.2,1.,1.2,0.,1.2,,0.0,,0.0
1979-07-23 03:05:47.620 ,7,0,0.,1.2,0.,1.2,0.,1.2,,0.0,,0.0
1979-07-23 03:05:48.820 ,7,0,0.,1.2,0.,1.2,0.,1.2,,0.0,,0.0
1979-07-23 03:05:50.020 ,7,0,0.,1.2,0.,1.2,0.,1.2,,0.0,,0.0
1979-07-23 03:05:51.220 ,7,0,0.,1.2,0.,1.2,0.,1.2,,0.0,,0.0
1979-07-23 03:05:52.420 ,7,0,0.,1.2,0.,1.2,0.,1.2,,0.0,,0.0
1979-07-23 03:05:53.620 ,7,0,1.,1.2,1.,1.2,1.,1.2,,0.0,,0.0
1979-07-23 03:05:54.820 ,7,0,3.,1.2,2.,1.2,0.,1.2,,0.0,,0.0
1979-07-23 03:05:56.020 ,7,0,0.,1.2,0.,1.2,0.,1.2,,0.0,,0.0
1979-07-23 03:05:57.220 ,7,0,0.,1.2,0.,1.2,0.,1.2,,0.0,,0.0
1979-07-23 03:05:58.420 ,7,0,0.,1.2,0.,1.2,0.,1.2,,0.0,,0.0
1979-07-23 03:05:59.620 ,7,0,0.,1.2,0.,1.2,0.,1.2,,0.0,,0.0
1979-07-23 03:06:00.820 ,7,0,0.,1.2,0.,1.2,0.,1.2,,0.0,,0.0
1979-07-23 03:06:02.020 ,7,0,0.,1.2,0.,1.2,0.,1.2,,0.0,,0.0
1979-07-23 03:06:03.220 ,7,0,0.,1.2,0.,1.2,0.,1.2,,0.0,,0.0
1979-07-23 03:06:04.420 ,7,0,0.,1.2,0.,1.2,0.,1.2,,0.0,,0.0
1979-07-23 03:06:05.620 ,7,0,2.,1.2,2.,1.2,0.,1.2,,0.0,,0.0
1979-07-23 03:06:06.820 ,7,0,0.,1.2,0.,1.2,0.,1.2,,0.0,,0.0
1979-07-23 03:06:08.020 ,7,0,1.,1.2,0.,1.2,0.,1.2,,0.0,,0.0
1979-07-23 03:06:09.220 ,7,0,0.,1.2,0.,1.2,0.,1.2,,0.0,,0.0
1979-07-23 03:06:10.420 ,7,0,0.,1.2,0.,1.2,0.,1.2,,0.0,,0.0
1979-07-23 03:06:11.620 ,7,0,0.,1.2,0.,1.2,0.,1.2,,0.0,,0.0
1979-07-23 03:06:12.820 ,7,0,0.,1.2,0.,1.2,0.,1.2,,0.0,,0.0
1979-07-23 03:06:14.020 ,7,0,0.,1.2,0.,1.2,0.,1.2,,0.0,,0.0
1979-07-23 03:06:15.220 ,7,0,1.,1.2,1.,1.2,1.,1.2,,0.0,,0.0
1979-07-23 03:06:16.420 ,7,0,0.,1.2,0.,1.2,0.,1.2,,0.0,,0.0
1979-07-23 03:06:17.620 ,7,0,1.,1.2,0.,1.2,0.,1.2,,0.0,,0.0
1979-07-23 03:06:18.820 ,7,0,1.,1.2,1.,1.2,1.,1.2,,0.0,,0.0
1979-07-23 03:06:20.020 ,7,0,0.,1.2,0.,1.2,0.,1.2,,0.0,,0.0
1979-07-23 03:06:21.220 ,7,0,0.,1.2,0.,1.2,0.,1.2,,0.0,,0.0
1979-07-23 03:06:22.420 ,6,0,0.,1.2,0.,1.2,0.,1.2,,0.0,,0.0
1979-07-23 03:06:23.620 ,6,0,0.,1.2,0.,1.2,0.,1.2,,0.0,,0.0
1979-07-23 03:06:24.820 ,6,0,0.,1.2,0.,1.2,0.,1.2,,0.0,,0.0
1979-07-23 03:06:26.020 ,6,0,0.,1.2,0.,1.2,0.,1.2,,0.0,,0.0
1979-07-23 03:06:27.220 ,6,0,0.,1.2,0.,1.2,0.,1.2,,0.0,,0.0
1979-07-23 03:06:28.420 ,6,0,0.,1.2,0.,1.2,0.,1.2,,0.0,,0.0
1979-07-23 03:06:29.620 ,6,0,1.,1.2,1.,1.2,0.,1.2,,0.0,,0.0
1979-07-23 03:06:30.820 ,6,0,0.,1.2,0.,1.2,0.,1.2,,0.0,,0.0
1979-07-23 03:06:32.020 ,6,0,0.,1.2,0.,1.2,0.,1.2,,0.0,,0.0
1979-07-23 03:06:33.220 ,6,0,0.,1.2,0.,1.2,0.,1.2,,0.0,,0.0
1979-07-23 03:06:34.420 ,6,0,0.,1.2,0.,1.2,0.,1.2,,0.0,,0.0
1979-07-23 03:06:35.620 ,6,0,1.,1.2,0.,1.2,0.,1.2,,0.0,,0.0
1979-07-23 03:06:36.820 ,6,0,0.,1.2,0.,1.2,0.,1.2,,0.0,,0.0
1979-07-23 03:06:38.020 ,6,0,0.,1.2,0.,1.2,0.,1.2,,0.0,,0.0
1979-07-23 03:06:39.220 ,6,0,1.,1.2,0.,1.2,0.,1.2,,0.0,,0.0
1979-07-23 03:06:40.420 ,6,0,0.,1.2,0.,1.2,0.,1.2,,0.0,,0.0
1979-07-23 03:06:41.620 ,6,0,1.,1.2,0.,1.2,0.,1.2,,0.0,,0.0
1979-07-23 03:06:42.820 ,6,0,0.,1.2,0.,1.2,0.,1.2,,0.0,,0.0
1979-07-23 03:06:44.020 ,6,0,1.,1.2,1.,1.2,0.,1.2,,0.0,,0.0
1979-07-23 03:06:45.220 ,6,0,0.,1.2,0.,1.2,0.,1.2,,0.0,,0.0
1979-07-23 03:06:46.420 ,6,0,0.,1.2,0.,1.2,0.,1.2,,0.0,,0.0
1979-07-23 03:06:47.620 ,6,0,1.,1.2,0.,1.2,0.,1.2,,0.0,,0.0
1979-07-23 03:06:48.820 ,6,0,0.,1.2,0.,1.2,0.,1.2,,0.0,,0.0
1979-07-23 03:06:50.020 ,6,0,0.,1.2,0.,1.2,0.,1.2,,0.0,,0.0
1979-07-23 03:06:51.220 ,6,0,0.,1.2,0.,1.2,0.,1.2,,0.0,,0.0
1979-07-23 03:06:52.420 ,6,0,0.,1.2,0.,1.2,0.,1.2,,0.0,,0.0
1979-07-23 03:06:53.620 ,6,0,2.,1.2,0.,1.2,0.,1.2,,0.0,,0.0
1979-07-23 03:06:54.820 ,6,0,3.,1.2,2.,1.2,1.,1.2,,0.0,,0.0
1979-07-23 03:06:56.020 ,6,0,0.,1.2,0.,1.2,0.,1.2,,0.0,,0.0
1979-07-23 03:06:57.220 ,6,0,1.,1.2,0.,1.2,0.,1.2,,0.0,,0.0
1979-07-23 03:06:58.420 ,6,0,0.,1.2,0.,1.2,0.,1.2,,0.0,,0.0
1979-07-23 03:06:59.620 ,6,0,0.,1.2,0.,1.2,0.,1.2,,0.0,,0.0
1979-07-23 03:07:00.820 ,6,0,0.,1.2,0.,1.2,0.,1.2,,0.0,,0.0
1979-07-23 03:07:02.020 ,6,0,0.,1.2,0.,1.2,0.,1.2,,0.0,,0.0
1979-07-23 03:07:03.220 ,6,0,0.,1.2,0.,1.2,0.,1.2,,0.0,,0.0
1979-07-23 03:07:04.420 ,6,0,0.,1.2,0.,1.2,0.,1.2,,0.0,,0.0
1979-07-23 03:07:05.620 ,6,0,0.,1.2,0.,1.2,0.,1.2,,0.0,,0.0
1979-07-23 03:07:06.820 ,6,0,0.,1.2,0.,1.2,0.,1.2,,0.0,,0.0
1979-07-23 03:07:08.020 ,6,0,1.,1.2,1.,1.2,0.,1.2,,0.0,,0.0
1979-07-23 03:07:09.220 ,6,0,0.,1.2,0.,1.2,0.,1.2,,0.0,,0.0
1979-07-23 03:07:10.410 ,5,0,0.,1.2,0.,1.2,0.,1.2,,0.0,,0.0
1979-07-23 03:07:11.610 ,5,0,0.,1.2,0.,1.2,0.,1.2,,0.0,,0.0
1979-07-23 03:07:12.810 ,5,0,1.,1.2,0.,1.2,0.,1.2,,0.0,,0.0
1979-07-23 03:07:14.010 ,5,0,0.,1.2,0.,1.2,0.,1.2,,0.0,,0.0
1979-07-23 03:07:15.210 ,5,0,0.,1.2,0.,1.2,0.,1.2,,0.0,,0.0
1979-07-23 03:07:16.410 ,5,0,0.,1.2,0.,1.2,0.,1.2,,0.0,,0.0
1979-07-23 03:07:17.610 ,5,0,0.,1.2,0.,1.2,0.,1.2,,0.0,,0.0
1979-07-23 03:07:18.810 ,5,0,0.,1.2,0.,1.2,0.,1.2,,0.0,,0.0
1979-07-23 03:07:20.010 ,5,0,0.,1.2,0.,1.2,0.,1.2,,0.0,,0.0
1979-07-23 03:07:21.210 ,5,0,0.,1.2,0.,1.2,0.,1.2,,0.0,,0.0
1979-07-23 03:07:22.410 ,5,0,1.,1.2,0.,1.2,0.,1.2,,0.0,,0.0
1979-07-23 03:07:23.610 ,5,0,2.,1.2,0.,1.2,0.,1.2,,0.0,,0.0
1979-07-23 03:07:24.810 ,5,0,0.,1.2,0.,1.2,0.,1.2,,0.0,,0.0
1979-07-23 03:07:26.010 ,5,0,0.,1.2,0.,1.2,0.,1.2,,0.0,,0.0
1979-07-23 03:07:27.210 ,5,0,0.,1.2,0.,1.2,0.,1.2,,0.0,,0.0
1979-07-23 03:07:28.410 ,5,0,0.,1.2,0.,1.2,0.,1.2,,0.0,,0.0
1979-07-23 03:07:29.610 ,5,0,2.,1.2,1.,1.2,1.,1.2,,0.0,,0.0
1979-07-23 03:07:30.810 ,5,0,0.,1.2,0.,1.2,0.,1.2,,0.0,,0.0
1979-07-23 03:07:32.010 ,5,0,0.,1.2,0.,1.2,0.,1.2,,0.0,,0.0
1979-07-23 03:07:33.210 ,5,0,0.,1.2,0.,1.2,0.,1.2,,0.0,,0.0
1979-07-23 03:07:34.410 ,5,0,0.,1.2,0.,1.2,0.,1.2,,0.0,,0.0
1979-07-23 03:07:35.610 ,5,0,1.,1.2,1.,1.2,0.,1.2,,0.0,,0.0
1979-07-23 03:07:36.810 ,5,0,1.,1.2,1.,1.2,0.,1.2,,0.0,,0.0
1979-07-23 03:07:38.010 ,5,0,0.,1.2,0.,1.2,0.,1.2,,0.0,,0.0
1979-07-23 03:07:39.210 ,5,0,2.,1.2,0.,1.2,0.,1.2,,0.0,,0.0
1979-07-23 03:07:40.410 ,5,0,0.,1.2,0.,1.2,0.,1.2,,0.0,,0.0
1979-07-23 03:07:41.610 ,5,0,0.,1.2,0.,1.2,0.,1.2,,0.0,,0.0
1979-07-23 03:07:42.810 ,5,0,2.,1.2,0.,1.2,0.,1.2,,0.0,,0.0
1979-07-23 03:07:44.010 ,5,0,0.,1.2,0.,1.2,0.,1.2,,0.0,,0.0
1979-07-23 03:07:45.210 ,5,0,0.,1.2,0.,1.2,0.,1.2,,0.0,,0.0
1979-07-23 03:07:46.410 ,5,0,0.,1.2,0.,1.2,0.,1.2,,0.0,,0.0
1979-07-23 03:07:47.610 ,5,0,0.,1.2,0.,1.2,0.,1.2,,0.0,,0.0
1979-07-23 03:07:48.810 ,5,0,0.,1.2,0.,1.2,0.,1.2,,0.0,,0.0
1979-07-23 03:07:50.010 ,5,0,0.,1.2,0.,1.2,0.,1.2,,0.0,,0.0
1979-07-23 03:07:51.210 ,5,0,1.,1.2,1.,1.2,0.,1.2,,0.0,,0.0
1979-07-23 03:07:52.410 ,5,0,0.,1.2,0.,1.2,0.,1.2,,0.0,,0.0
1979-07-23 03:07:53.610 ,5,0,0.,1.2,0.,1.2,0.,1.2,,0.0,,0.0
1979-07-23 03:07:54.810 ,5,0,0.,1.2,0.,1.2,0.,1.2,,0.0,,0.0
1979-07-23 03:07:56.010 ,5,0,0.,1.2,0.,1.2,0.,1.2,,0.0,,0.0
1979-07-23 03:07:57.210 ,5,0,0.,1.2,0.,1.2,0.,1.2,,0.0,,0.0
1979-07-23 03:07:58.410 ,4,0,0.,1.2,0.,1.2,0.,1.2,,0.0,,0.0
1979-07-23 03:07:59.610 ,4,0,1.,1.2,0.,1.2,0.,1.2,,0.0,,0.0
1979-07-23 03:08:00.810 ,4,0,1.,1.2,0.,1.2,0.,1.2,,0.0,,0.0
1979-07-23 03:08:02.010 ,4,0,0.,1.2,0.,1.2,0.,1.2,,0.0,,0.0
1979-07-23 03:08:03.210 ,4,0,2.,1.2,2.,1.2,0.,1.2,,0.0,,0.0
1979-07-23 03:08:04.410 ,4,0,0.,1.2,0.,1.2,0.,1.2,,0.0,,0.0
1979-07-23 03:08:05.610 ,4,0,0.,1.2,0.,1.2,0.,1.2,,0.0,,0.0
1979-07-23 03:08:06.810 ,4,0,0.,1.2,0.,1.2,0.,1.2,,0.0,,0.0
1979-07-23 03:08:08.010 ,4,0,0.,1.2,0.,1.2,0.,1.2,,0.0,,0.0
1979-07-23 03:08:09.210 ,4,0,0.,1.2,0.,1.2,0.,1.2,,0.0,,0.0
1979-07-23 03:08:10.410 ,4,0,0.,1.2,0.,1.2,0.,1.2,,0.0,,0.0
1979-07-23 03:08:11.610 ,4,0,0.,1.2,0.,1.2,0.,1.2,,0.0,,0.0
1979-07-23 03:08:12.810 ,4,0,0.,1.2,0.,1.2,0.,1.2,,0.0,,0.0
1979-07-23 03:08:14.010 ,4,0,0.,1.2,0.,1.2,0.,1.2,,0.0,,0.0
1979-07-23 03:08:15.210 ,4,0,0.,1.2,0.,1.2,0.,1.2,,0.0,,0.0
1979-07-23 03:08:16.410 ,4,0,0.,1.2,0.,1.2,0.,1.2,,0.0,,0.0
1979-07-23 03:08:17.610 ,4,0,0.,1.2,0.,1.2,0.,1.2,,0.0,,0.0
1979-07-23 03:08:18.810 ,4,0,0.,1.2,0.,1.2,0.,1.2,,0.0,,0.0
1979-07-23 03:08:20.010 ,4,0,1.,1.2,1.,1.2,0.,1.2,,0.0,,0.0
1979-07-23 03:08:21.210 ,4,0,0.,1.2,0.,1.2,0.,1.2,,0.0,,0.0
1979-07-23 03:08:22.410 ,4,0,1.,1.2,1.,1.2,1.,1.2,,0.0,,0.0
1979-07-23 03:08:23.610 ,4,0,0.,1.2,0.,1.2,0.,1.2,,0.0,,0.0
1979-07-23 03:08:24.810 ,4,0,0.,1.2,0.,1.2,0.,1.2,,0.0,,0.0
1979-07-23 03:08:26.010 ,4,0,0.,1.2,0.,1.2,0.,1.2,,0.0,,0.0
1979-07-23 03:08:27.210 ,4,0,0.,1.2,0.,1.2,0.,1.2,,0.0,,0.0
1979-07-23 03:08:28.410 ,4,0,0.,1.2,0.,1.2,0.,1.2,,0.0,,0.0
1979-07-23 03:08:29.610 ,4,0,1.,1.2,1.,1.2,0.,1.2,,0.0,,0.0
1979-07-23 03:08:30.810 ,4,0,0.,1.2,0.,1.2,0.,1.2,,0.0,,0.0
1979-07-23 03:08:32.010 ,4,0,0.,1.2,0.,1.2,0.,1.2,,0.0,,0.0
1979-07-23 03:08:33.210 ,4,0,0.,1.2,0.,1.2,0.,1.2,,0.0,,0.0
1979-07-23 03:08:34.410 ,4,0,0.,1.2,0.,1.2,0.,1.2,,0.0,,0.0
1979-07-23 03:08:35.610 ,4,0,1.,1.2,0.,1.2,0.,1.2,,0.0,,0.0
1979-07-23 03:08:36.810 ,4,0,1.,1.2,1.,1.2,0.,1.2,,0.0,,0.0
1979-07-23 03:08:38.010 ,4,0,0.,1.2,0.,1.2,0.,1.2,,0.0,,0.0
1979-07-23 03:08:39.210 ,4,0,0.,1.2,0.,1.2,0.,1.2,,0.0,,0.0
1979-07-23 03:08:40.410 ,4,0,0.,1.2,0.,1.2,0.,1.2,,0.0,,0.0
1979-07-23 03:08:41.610 ,4,0,1.,1.2,0.,1.2,0.,1.2,,0.0,,0.0
1979-07-23 03:08:42.810 ,4,0,0.,1.2,0.,1.2,0.,1.2,,0.0,,0.0
1979-07-23 03:08:44.010 ,4,0,0.,1.2,0.,1.2,0.,1.2,,0.0,,0.0
1979-07-23 03:08:45.210 ,4,0,0.,1.2,0.,1.2,0.,1.2,,0.0,,0.0
1979-07-23 03:08:46.410 ,3,0,1.,1.2,0.,1.2,0.,1.2,,0.0,,0.0
1979-07-23 03:08:47.610 ,3,0,1.,1.2,0.,1.2,0.,1.2,,0.0,,0.0
1979-07-23 03:08:48.810 ,3,0,0.,1.2,0.,1.2,0.,1.2,,0.0,,0.0
1979-07-23 03:08:50.010 ,3,0,0.,1.2,0.,1.2,0.,1.2,,0.0,,0.0
1979-07-23 03:08:51.210 ,3,0,0.,1.2,0.,1.2,0.,1.2,,0.0,,0.0
1979-07-23 03:08:52.410 ,3,0,1.,1.2,0.,1.2,0.,1.2,,0.0,,0.0
1979-07-23 03:08:53.610 ,3,0,1.,1.2,1.,1.2,0.,1.2,,0.0,,0.0
1979-07-23 03:08:54.810 ,3,0,1.,1.2,0.,1.2,0.,1.2,,0.0,,0.0
1979-07-23 03:08:56.010 ,3,0,1.,1.2,1.,1.2,0.,1.2,,0.0,,0.0
1979-07-23 03:08:57.210 ,3,0,0.,1.2,0.,1.2,0.,1.2,,0.0,,0.0
1979-07-23 03:08:58.410 ,3,0,0.,1.2,0.,1.2,0.,1.2,,0.0,,0.0
1979-07-23 03:08:59.610 ,3,0,0.,1.2,0.,1.2,0.,1.2,,0.0,,0.0